Time,TemperatureF,DewpointF,PressureIn,WindDirection,WindDirectionDegrees,WindSpeedMPH,WindSpeedGustMPH,Humidity,HourlyPrecipIn,Conditions,Clouds,dailyrainin,SolarRadiationWatts/m^2,SoftwareType,DateUTC
2013-09-26 00:04:00,52.2,45.0,29.95,NW,310,0.0,2.0,76,0.00,,,0.00,0,weatherlink.com 1.10,2013-09-26 04:04:00,
2013-09-26 00:19:00,51.6,45.0,29.95,WNW,302,0.0,1.0,77,0.00,,,0.00,0,weatherlink.com 1.10,2013-09-26 04:19:00,
2013-09-26 00:34:00,51.0,44.0,29.96,NNW,329,0.0,3.0,78,0.00,,,0.00,0,weatherlink.com 1.10,2013-09-26 04:34:00,
2013-09-26 00:49:00,50.5,44.0,29.96,NW,320,2.0,4.0,79,0.00,,,0.00,0,weatherlink.com 1.10,2013-09-26 04:49:00,
2013-09-26 01:04:00,50.4,44.0,29.96,NW,323,2.0,5.0,79,0.00,,,0.00,0,weatherlink.com 1.10,2013-09-26 05:04:00,
2013-09-26 01:19:00,50.1,44.0,29.96,NW,323,1.0,4.0,80,0.00,,,0.00,0,weatherlink.com 1.10,2013-09-26 05:19:00,
2013-09-26 01:34:00,49.7,44.0,29.97,NW,323,0.0,3.0,81,0.00,,,0.00,0,weatherlink.com 1.10,2013-09-26 05:34:00,
2013-09-26 01:49:00,49.2,44.0,29.97,NW,323,0.0,1.0,81,0.00,,,0.00,0,weatherlink.com 1.10,2013-09-26 05:49:00,
2013-09-26 02:04:00,48.5,43.0,29.97,NW,323,1.0,1.0,82,0.00,,,0.00,0,weatherlink.com 1.10,2013-09-26 06:04:00,
2013-09-26 02:19:00,47.9,43.0,29.97,NNW,331,1.0,3.0,83,0.00,,,0.00,0,weatherlink.com 1.10,2013-09-26 06:19:00,
2013-09-26 02:34:00,47.6,43.0,29.97,NW,320,2.0,4.0,85,0.00,,,0.00,0,weatherlink.com 1.10,2013-09-26 06:34:00,
2013-09-26 02:49:00,47.4,43.0,29.97,NW,314,2.0,3.0,85,0.00,,,0.00,0,weatherlink.com 1.10,2013-09-26 06:49:00,
2013-09-26 03:19:00,47.0,43.0,29.98,WNW,302,1.0,2.0,86,0.00,,,0.00,0,weatherlink.com 1.10,2013-09-26 07:19:00,
2013-09-26 03:34:00,46.7,43.0,29.98,NW,321,1.0,2.0,86,0.00,,,0.00,0,weatherlink.com 1.10,2013-09-26 07:34:00,
2013-09-26 03:49:00,46.5,43.0,29.98,NNW,327,2.0,3.0,87,0.00,,,0.00,0,weatherlink.com 1.10,2013-09-26 07:49:00,
2013-09-26 04:04:00,46.3,43.0,29.98,NNW,327,3.0,4.0,87,0.00,,,0.00,0,weatherlink.com 1.10,2013-09-26 08:04:00,
2013-09-26 04:19:00,46.1,43.0,29.98,NNW,332,2.0,3.0,88,0.00,,,0.00,0,weatherlink.com 1.10,2013-09-26 08:19:00,
2013-09-26 04:34:00,45.9,43.0,29.98,NW,312,1.0,2.0,88,0.00,,,0.00,0,weatherlink.com 1.10,2013-09-26 08:34:00,
2013-09-26 04:49:00,45.8,43.0,29.99,NNW,333,1.0,4.0,89,0.00,,,0.00,0,weatherlink.com 1.10,2013-09-26 08:49:00,
2013-09-26 05:04:00,45.7,43.0,29.98,NW,325,1.0,5.0,89,0.00,,,0.00,0,weatherlink.com 1.10,2013-09-26 09:04:00,
2013-09-26 05:19:00,45.6,43.0,29.98,NW,313,1.0,3.0,89,0.00,,,0.00,0,weatherlink.com 1.10,2013-09-26 09:19:00,
2013-09-26 05:35:00,45.5,43.0,29.98,NW,320,0.0,2.0,90,0.00,,,0.00,0,weatherlink.com 1.10,2013-09-26 09:35:00,
2013-09-26 05:50:00,45.5,43.0,29.99,NNW,327,1.0,3.0,90,0.00,,,0.00,0,weatherlink.com 1.10,2013-09-26 09:50:00,
2013-09-26 06:05:00,45.9,44.0,29.99,NNW,331,2.0,3.0,91,0.00,,,0.00,0,weatherlink.com 1.10,2013-09-26 10:05:00,
2013-09-26 06:20:00,46.3,44.0,29.99,NW,326,0.0,3.0,92,0.00,,,0.00,0,weatherlink.com 1.10,2013-09-26 10:20:00,
2013-09-26 06:35:00,46.8,45.0,29.99,NW,326,1.0,2.0,92,0.00,,,0.00,0,weatherlink.com 1.10,2013-09-26 10:35:00,
2013-09-26 06:50:00,47.3,45.0,30.00,NW,326,2.0,3.0,92,0.00,,,0.00,7,weatherlink.com 1.10,2013-09-26 10:50:00,
2013-09-26 07:05:00,48.2,46.0,30.00,North,350,3.0,5.0,92,0.00,,,0.00,14,weatherlink.com 1.10,2013-09-26 11:05:00,
2013-09-26 07:20:00,49.2,47.0,30.00,NW,323,2.0,5.0,91,0.00,,,0.00,11,weatherlink.com 1.10,2013-09-26 11:20:00,
2013-09-26 07:35:00,49.6,47.0,30.00,NNW,330,1.0,4.0,89,0.00,,,0.00,19,weatherlink.com 1.10,2013-09-26 11:35:00,
2013-09-26 07:50:00,49.8,46.0,30.01,NNW,331,2.0,3.0,88,0.00,,,0.00,49,weatherlink.com 1.10,2013-09-26 11:50:00,
2013-09-26 08:05:00,50.4,47.0,30.01,NW,313,3.0,5.0,88,0.00,,,0.00,72,weatherlink.com 1.10,2013-09-26 12:05:00,
2013-09-26 08:20:00,51.2,48.0,30.01,NNW,338,4.0,5.0,87,0.00,,,0.00,84,weatherlink.com 1.10,2013-09-26 12:20:00,
2013-09-26 08:35:00,51.9,48.0,30.02,NNW,341,2.0,5.0,86,0.00,,,0.00,105,weatherlink.com 1.10,2013-09-26 12:35:00,
2013-09-26 08:50:00,52.7,48.0,30.02,NW,308,2.0,5.0,84,0.00,,,0.00,76,weatherlink.com 1.10,2013-09-26 12:50:00,
2013-09-26 09:05:00,53.5,49.0,30.02,NNW,333,3.0,7.0,83,0.00,,,0.00,28,weatherlink.com 1.10,2013-09-26 13:05:00,
2013-09-26 09:20:00,54.3,49.0,30.02,WNW,299,3.0,7.0,81,0.00,,,0.00,67,weatherlink.com 1.10,2013-09-26 13:20:00,
2013-09-26 09:35:00,55.8,49.0,30.02,NNW,329,3.0,10.0,78,0.00,,,0.00,111,weatherlink.com 1.10,2013-09-26 13:35:00,
2013-09-26 09:50:00,57.1,49.0,30.03,NNW,339,6.0,10.0,74,0.00,,,0.00,137,weatherlink.com 1.10,2013-09-26 13:50:00,
2013-09-26 10:05:00,57.3,49.0,30.03,NNE,25,3.0,7.0,74,0.00,,,0.00,223,weatherlink.com 1.10,2013-09-26 14:05:00,
2013-09-26 10:20:00,57.6,49.0,30.03,NNE,32,5.0,12.0,73,0.00,,,0.00,123,weatherlink.com 1.10,2013-09-26 14:20:00,
2013-09-26 10:35:00,58.0,49.0,30.03,NE,54,3.0,11.0,72,0.00,,,0.00,241,weatherlink.com 1.10,2013-09-26 14:35:00,
2013-09-26 10:50:00,59.5,50.0,30.02,NNE,12,2.0,9.0,71,0.00,,,0.00,183,weatherlink.com 1.10,2013-09-26 14:50:00,
2013-09-26 11:05:00,60.2,50.0,30.02,NNE,26,6.0,12.0,68,0.00,,,0.00,107,weatherlink.com 1.10,2013-09-26 15:05:00,
2013-09-26 11:20:00,60.9,50.0,30.02,SW,229,2.0,11.0,67,0.00,,,0.00,116,weatherlink.com 1.10,2013-09-26 15:20:00,
2013-09-26 11:35:00,61.9,50.0,30.02,NW,309,6.0,8.0,66,0.00,,,0.00,155,weatherlink.com 1.10,2013-09-26 15:35:00,
2013-09-26 11:50:00,62.0,50.0,30.02,WNW,300,5.0,9.0,66,0.00,,,0.00,120,weatherlink.com 1.10,2013-09-26 15:50:00,
2013-09-26 12:05:00,62.6,51.0,30.02,NE,42,6.0,10.0,65,0.00,,,0.00,265,weatherlink.com 1.10,2013-09-26 16:05:00,
2013-09-26 12:21:00,62.4,50.0,30.02,NE,46,4.0,12.0,65,0.00,,,0.00,139,weatherlink.com 1.10,2013-09-26 16:21:00,
2013-09-26 12:36:00,62.2,50.0,30.02,NW,325,3.0,12.0,65,0.00,,,0.00,67,weatherlink.com 1.10,2013-09-26 16:36:00,
2013-09-26 12:51:00,62.5,50.0,30.01,NW,321,7.0,10.0,64,0.00,,,0.00,768,weatherlink.com 1.10,2013-09-26 16:51:00,
2013-09-26 13:06:00,62.8,50.0,30.01,NW,325,4.0,11.0,64,0.00,,,0.00,167,weatherlink.com 1.10,2013-09-26 17:06:00,
2013-09-26 13:21:00,63.3,50.0,30.00,WSW,248,3.0,8.0,63,0.00,,,0.00,42,weatherlink.com 1.10,2013-09-26 17:21:00,
2013-09-26 13:36:00,63.4,50.0,30.01,NNW,328,5.0,12.0,62,0.00,,,0.00,65,weatherlink.com 1.10,2013-09-26 17:36:00,
2013-09-26 13:51:00,63.9,50.0,30.01,NNE,22,5.0,9.0,62,0.00,,,0.00,93,weatherlink.com 1.10,2013-09-26 17:51:00,
2013-09-26 14:21:00,64.6,51.0,30.01,NNE,14,4.0,10.0,61,0.00,,,0.00,258,weatherlink.com 1.10,2013-09-26 18:21:00,
2013-09-26 14:36:00,65.1,51.0,30.01,WNW,299,2.0,9.0,61,0.00,,,0.00,294,weatherlink.com 1.10,2013-09-26 18:36:00,
2013-09-26 14:51:00,65.3,51.0,30.00,North,351,7.0,14.0,60,0.00,,,0.00,410,weatherlink.com 1.10,2013-09-26 18:51:00,
2013-09-26 15:06:00,65.1,52.0,30.01,NW,321,2.0,8.0,63,0.00,,,0.00,102,weatherlink.com 1.10,2013-09-26 19:06:00,
2013-09-26 15:21:00,64.0,50.0,30.01,NNW,344,3.0,10.0,61,0.00,,,0.00,158,weatherlink.com 1.10,2013-09-26 19:21:00,
2013-09-26 15:36:00,64.1,50.0,30.01,NW,314,3.0,9.0,60,0.00,,,0.00,204,weatherlink.com 1.10,2013-09-26 19:36:00,
2013-09-26 15:51:00,64.3,51.0,30.01,NW,325,6.0,8.0,62,0.00,,,0.00,76,weatherlink.com 1.10,2013-09-26 19:51:00,
2013-09-26 16:06:00,64.3,50.0,30.01,NNW,345,7.0,12.0,61,0.00,,,0.00,32,weatherlink.com 1.10,2013-09-26 20:06:00,
2013-09-26 16:21:00,63.9,51.0,30.01,NNW,341,3.0,9.0,63,0.00,,,0.00,79,weatherlink.com 1.10,2013-09-26 20:21:00,
2013-09-26 16:36:00,63.7,50.0,30.02,NNE,24,3.0,11.0,62,0.00,,,0.00,26,weatherlink.com 1.10,2013-09-26 20:36:00,
2013-09-26 16:51:00,63.2,51.0,30.02,NNW,338,2.0,6.0,64,0.00,,,0.00,28,weatherlink.com 1.10,2013-09-26 20:51:00,
2013-09-26 17:06:00,63.1,51.0,30.03,NNE,18,3.0,8.0,65,0.00,,,0.00,25,weatherlink.com 1.10,2013-09-26 21:06:00,
2013-09-26 17:21:00,63.0,51.0,30.03,North,5,6.0,10.0,64,0.00,,,0.00,26,weatherlink.com 1.10,2013-09-26 21:21:00,
2013-09-26 17:36:00,62.9,51.0,30.03,North,355,5.0,7.0,65,0.00,,,0.00,16,weatherlink.com 1.10,2013-09-26 21:36:00,
2013-09-26 17:51:00,62.3,52.0,30.04,NW,326,1.0,5.0,68,0.00,,,0.00,14,weatherlink.com 1.10,2013-09-26 21:51:00,
2013-09-26 18:06:00,61.5,51.0,30.04,NNW,333,2.0,5.0,69,0.00,,,0.00,11,weatherlink.com 1.10,2013-09-26 22:06:00,
2013-09-26 18:21:00,60.6,51.0,30.05,NNW,332,2.0,4.0,70,0.00,,,0.00,5,weatherlink.com 1.10,2013-09-26 22:21:00,
2013-09-26 18:36:00,60.0,51.0,30.05,North,355,3.0,4.0,72,0.00,,,0.00,0,weatherlink.com 1.10,2013-09-26 22:36:00,
2013-09-26 18:51:00,58.9,51.0,30.06,NNW,337,1.0,6.0,74,0.00,,,0.00,0,weatherlink.com 1.10,2013-09-26 22:51:00,
2013-09-26 19:06:00,58.0,50.0,30.06,NNW,339,2.0,6.0,75,0.00,,,0.00,0,weatherlink.com 1.10,2013-09-26 23:06:00,
2013-09-26 19:21:00,57.3,50.0,30.07,NNW,336,2.0,4.0,76,0.00,,,0.00,0,weatherlink.com 1.10,2013-09-26 23:21:00,
2013-09-26 19:36:00,56.6,49.0,30.08,NW,324,2.0,9.0,77,0.00,,,0.00,0,weatherlink.com 1.10,2013-09-26 23:36:00,
2013-09-26 19:51:00,56.0,49.0,30.09,NNW,337,1.0,3.0,78,0.00,,,0.00,0,weatherlink.com 1.10,2013-09-26 23:51:00,
2013-09-26 20:06:00,55.5,49.0,30.09,North,11,0.0,2.0,78,0.00,,,0.00,0,weatherlink.com 1.10,2013-09-27 00:06:00,
2013-09-26 20:21:00,55.1,49.0,30.10,North,355,1.0,4.0,79,0.00,,,0.00,0,weatherlink.com 1.10,2013-09-27 00:21:00,
2013-09-26 20:36:00,54.8,49.0,30.10,North,349,2.0,5.0,81,0.00,,,0.00,0,weatherlink.com 1.10,2013-09-27 00:36:00,
2013-09-26 20:51:00,54.8,49.0,30.10,NNW,335,2.0,6.0,81,0.00,,,0.00,0,weatherlink.com 1.10,2013-09-27 00:51:00,
2013-09-26 21:06:00,55.0,49.0,30.10,NNE,22,4.0,11.0,81,0.00,,,0.00,0,weatherlink.com 1.10,2013-09-27 01:06:00,
2013-09-26 21:21:00,55.3,49.0,30.10,NNW,329,4.0,7.0,80,0.00,,,0.00,0,weatherlink.com 1.10,2013-09-27 01:21:00,
2013-09-26 21:36:00,55.6,50.0,30.10,NW,318,7.0,7.0,80,0.00,,,0.00,0,weatherlink.com 1.10,2013-09-27 01:36:00,
2013-09-26 21:51:00,55.6,50.0,30.11,NW,307,2.0,5.0,80,0.00,,,0.00,0,weatherlink.com 1.10,2013-09-27 01:51:00,
2013-09-26 22:06:00,55.6,50.0,30.11,NW,321,1.0,5.0,80,0.00,,,0.00,0,weatherlink.com 1.10,2013-09-27 02:06:00,
2013-09-26 22:21:00,55.6,50.0,30.11,NW,324,1.0,5.0,80,0.00,,,0.00,0,weatherlink.com 1.10,2013-09-27 02:21:00,
2013-09-26 22:36:00,55.6,50.0,30.11,NW,322,2.0,4.0,80,0.00,,,0.00,0,weatherlink.com 1.10,2013-09-27 02:36:00,
2013-09-26 22:51:00,55.6,50.0,30.11,NW,323,1.0,4.0,81,0.00,,,0.00,0,weatherlink.com 1.10,2013-09-27 02:51:00,
2013-09-26 23:06:00,55.6,50.0,30.11,NW,321,2.0,4.0,81,0.00,,,0.00,0,weatherlink.com 1.10,2013-09-27 03:06:00,
2013-09-26 23:21:00,55.7,50.0,30.11,NNW,327,3.0,4.0,81,0.00,,,0.00,0,weatherlink.com 1.10,2013-09-27 03:21:00,
2013-09-26 23:36:00,55.7,50.0,30.11,NW,312,2.0,4.0,81,0.00,,,0.00,0,weatherlink.com 1.10,2013-09-27 03:36:00,
2013-09-26 23:51:00,55.7,50.0,30.11,NW,314,2.0,3.0,81,0.00,,,0.00,0,weatherlink.com 1.10,2013-09-27 03:51:00,